Simultaneous Nadir Overpasses (SNOs) Predictions

Prediction of SNOs between GOES-16 and NOAA-19 Satellite Orbit:

Table of predicted SNOs for the next 14.0 days since TLE Epoch: 4/1/2023
Index Date Time (GOES-16) GOES-16 Lat,Lon NOAA-19 Lat,Lon Distance(km) Time Diff (sec)
1 04/03/2023 13:40:52 0.05, -75.22 0.73, -78.13 332.15 80
2 04/04/2023 13:28:53 0.05, -75.23 0.06, -75.21 3.23 80
3 04/05/2023 13:14:13 0.05, -75.24 -0.61, -72.28 336.81 80
4 04/08/2023 01:37:16 -0.05, -75.26 -0.50, -77.13 213.11 80
5 04/09/2023 01:22:37 -0.05, -75.27 0.18, -74.21 121.63 80
6 04/10/2023 01:10:37 -0.04, -75.29 0.87, -71.29 456.32 80
7 04/11/2023 13:45:20 0.04, -75.31 0.88, -78.97 417.67 80
8 04/12/2023 13:33:21 0.04, -75.33 0.19, -76.06 82.91 80
9 04/13/2023 13:18:42 0.04, -75.34 -0.50, -73.14 252.06 80
